{"data":{"norad_id":56833,"intl_designator":"2023-079L","name":"STARLINK-30131","alt_names":[],"object_type":"PAYLOAD","status":"ACTIVE","operator":null,"country":"US","launch_date":"2023-06-04","launch_site_code":"AFETR","launch_vehicle":null,"mission":null,"orbit_class":"UNKNOWN","rcs_meters":null,"size_class":null,"mass_kg":null,"dimensions":null,"purposes":["comms"],"wikipedia_slug":null,"has_3d_model":false,"image_url":null,"decayed_at":null,"tle_current":{"epoch":"2026-05-24T23:35:53.378016Z","epoch_age_seconds":72571,"freshness":"FRESH","line1":"1 56833U 23079L   26144.98325669  .00020253  00000+0  84669-3 0  9998","line2":"2 56833  43.0040  13.5852 0003098 232.6419 127.4149 15.23240515164815","mean_motion":15.23240515,"eccentricity":0.0003098,"inclination_deg":43.004,"raan_deg":13.5852,"arg_perigee_deg":232.6419,"mean_anomaly_deg":127.4149,"bstar":0.00084669,"rev_number":16481,"period_min":94.535300618629,"perigee_km":493.94428321172,"apogee_km":498.20354429388,"semimajor_km":6874.2109137528,"source":"CELESTRAK","updated_at":"2026-05-25T13:38:18.163423Z"}}}